Retour au catalogue

SL-12 R/B(2)

ActifMEO
NORAD 14595·ROCKET BODY·🇷🇺 Russia

Lancé Dec 29, 1983 depuis Baikonur Cosmodrome

Loading…

Prochains Passages (prochaines 24 heures)

TLE

FraisSource: Space-Track

Époque: Sep 14, 2026, 09:34 UTC

1 14595U 83127F   26257.39909190 -.00000065  00000-0  00000-0 0  9999
2 14595  66.2104 320.9952 0069690 188.0490 174.8513  2.13938736273301

Suivez SL-12 R/B(2) en temps réel avec AllMySat

Download on the App Store